| time (UTC) | temp F | wind direction | speed MPH | gust MPH | rain 1hr in | rain 24hr in | rain mn in | humidity % | barometer mb |
| 20260504204401 | 83 | 234 | 6.0 | 15.0 | 0.00 | 0.00 | 0.00 | 48 | 1001.9 |
| 20260504203901 | 82 | 227 | 9.0 | 15.0 | 0.00 | 0.00 | 0.00 | 47 | 1001.9 |
| 20260504203401 | 82 | 212 | 7.0 | 15.0 | 0.00 | 0.00 | 0.00 | 47 | 1002.0 |
| 20260504202901 | 82 | 244 | 7.0 | 13.0 | 0.00 | 0.00 | 0.00 | 45 | 1001.9 |
| 20260504202401 | 82 | 220 | 7.0 | 13.0 | 0.00 | 0.00 | 0.00 | 46 | 1002.1 |
| 20260504201901 | 81 | 199 | 8.0 | 14.0 | 0.00 | 0.00 | 0.00 | 45 | 1002.2 |
| 20260504201400 | 81 | 214 | 6.0 | 16.0 | 0.00 | 0.00 | 0.00 | 47 | 1002.3 |
| 20260504200900 | 82 | 230 | 7.0 | 16.0 | 0.00 | 0.00 | 0.00 | 47 | 1002.2 |
| 20260504195401 | 82 | 247 | 10.0 | 15.0 | 0.00 | 0.00 | 0.00 | 46 | 1002.2 |
| 20260504194900 | 83 | 172 | 7.0 | 15.0 | 0.00 | 0.00 | 0.00 | 46 | 1002.2 |
| 20260504193900 | 83 | 240 | 6.0 | 12.0 | 0.00 | 0.00 | 0.00 | 46 | 1002.1 |
| 20260504193359 | 83 | 241 | 4.0 | 14.0 | 0.00 | 0.00 | 0.00 | 45 | 1002.0 |
| 20260504192900 | 83 | 227 | 6.0 | 14.0 | 0.00 | 0.00 | 0.00 | 48 | 1002.1 |
| 20260504192359 | 83 | 266 | 6.0 | 17.0 | 0.00 | 0.00 | 0.00 | 45 | 1002.1 |
| 20260504191859 | 83 | 217 | 10.0 | 17.0 | 0.00 | 0.00 | 0.00 | 44 | 1002.1 |
| 20260504191359 | 84 | 252 | 7.0 | 18.0 | 0.00 | 0.00 | 0.00 | 45 | 1002.1 |
| 20260504190900 | 84 | 151 | 10.0 | 18.0 | 0.00 | 0.00 | 0.00 | 45 | 1002.3 |
| 20260504190359 | 84 | 224 | 6.0 | 17.0 | 0.00 | 0.00 | 0.00 | 49 | 1002.3 |
| 20260504185859 | 84 | 176 | 7.0 | 14.0 | 0.00 | 0.00 | 0.00 | 45 | 1002.4 |
| 20260504184858 | 83 | 183 | 8.0 | 15.0 | 0.00 | 0.00 | 0.00 | 46 | 1002.3 |
| 20260504183858 | 82 | 227 | 7.0 | 16.0 | 0.00 | 0.00 | 0.00 | 49 | 1002.5 |
| 20260504183358 | 82 | 213 | 5.0 | 15.0 | 0.00 | 0.00 | 0.00 | 46 | 1002.4 |
| 20260504182859 | 82 | 199 | 5.0 | 15.0 | 0.00 | 0.00 | 0.00 | 50 | 1002.5 |
| 20260504182359 | 81 | 235 | 4.0 | 12.0 | 0.00 | 0.00 | 0.00 | 54 | 1002.6 |
| 20260504181858 | 81 | 137 | 6.0 | 17.0 | 0.00 | 0.00 | 0.00 | 50 | 1002.6 |
| 20260504180856 | 80 | 238 | 6.0 | 14.0 | 0.00 | 0.00 | 0.00 | 50 | 1002.6 |
| 20260504180358 | 80 | 230 | 7.0 | 14.0 | 0.00 | 0.00 | 0.00 | 49 | 1002.7 |
| 20260504175858 | 80 | 258 | 8.0 | 14.0 | 0.00 | 0.00 | 0.00 | 48 | 1002.6 |
| 20260504175358 | 80 | 195 | 8.0 | 17.0 | 0.00 | 0.00 | 0.00 | 52 | 1002.7 |
| 20260504174858 | 79 | 197 | 10.0 | 17.0 | 0.00 | 0.00 | 0.00 | 52 | 1002.8 |
| 20260504174357 | 79 | 274 | 8.0 | 15.0 | 0.00 | 0.00 | 0.00 | 51 | 1002.9 |
| 20260504173857 | 78 | 254 | 8.0 | 15.0 | 0.00 | 0.00 | 0.00 | 56 | 1002.8 |
| 20260504173357 | 78 | 237 | 5.0 | 16.0 | 0.00 | 0.00 | 0.00 | 55 | 1002.8 |
| 20260504172856 | 77 | 207 | 9.0 | 16.0 | 0.00 | 0.00 | 0.00 | 54 | 1003.2 |
| 20260504171857 | 76 | 221 | 5.0 | 17.0 | 0.00 | 0.00 | 0.00 | 54 | 1003.0 |
| 20260504170856 | 76 | 178 | 6.0 | 15.0 | 0.00 | 0.00 | 0.00 | 53 | 1003.0 |
| 20260504170356 | 76 | 199 | 6.0 | 14.0 | 0.00 | 0.00 | 0.00 | 52 | 1003.0 |
| 20260504160355 | 75 | 219 | 8.0 | 16.0 | 0.00 | 0.00 | 0.00 | 54 | 1003.3 |
| 20260504150854 | 71 | 219 | 7.0 | 21.0 | 0.00 | 0.00 | 0.00 | 58 | 1003.5 |
| 20260504140852 | 67 | 209 | 9.0 | 20.0 | 0.00 | 0.00 | 0.00 | 60 | 1003.7 |
| 20260504140352 | 67 | 164 | 8.0 | 20.0 | 0.00 | 0.00 | 0.00 | 59 | 1003.3 |
| 20260504130352 | 65 | 220 | 10.0 | 18.0 | 0.00 | 0.00 | 0.00 | 61 | 1003.2 |
| 20260504110348 | 64 | 231 | 8.0 | 12.0 | 0.00 | 0.00 | 0.00 | 57 | 1003.5 |
| 20260504081844 | 68 | 199 | 8.0 | 22.0 | 0.00 | 0.00 | 0.00 | 51 | 1004.6 |
| 20260504080843 | 68 | 223 | 8.0 | 19.0 | 0.00 | 0.00 | 0.00 | 50 | 1004.7 |
| 20260504080344 | 68 | 164 | 9.0 | 19.0 | 0.00 | 0.00 | 0.00 | 50 | 1004.7 |
| 20260504070342 | 68 | 212 | 9.0 | 17.0 | 0.00 | 0.00 | 0.00 | 51 | 1005.4 |
| 20260504050339 | 65 | 206 | 4.0 | 9.0 | 0.00 | 0.00 | 0.00 | 56 | 1006.1 |
| 20260504045841 | 65 | 200 | 4.0 | 10.0 | 0.00 | 0.00 | 0.00 | 55 | 1006.1 |
| 20260504044840 | 65 | 213 | 5.0 | 12.0 | 0.00 | 0.00 | 0.00 | 56 | 1006.2 |
| 20260504044339 | 64 | 179 | 5.0 | 12.0 | 0.00 | 0.00 | 0.00 | 57 | 1006.2 |
| 20260504043339 | 63 | 196 | 4.0 | 11.0 | 0.00 | 0.00 | 0.00 | 59 | 1006.2 |
| 20260504042838 | 63 | 213 | 5.0 | 11.0 | 0.00 | 0.00 | 0.00 | 61 | 1006.3 |
| 20260504042339 | 62 | 230 | 5.0 | 10.0 | 0.00 | 0.00 | 0.00 | 62 | 1006.3 |
| 20260504041838 | 62 | 207 | 4.0 | 10.0 | 0.00 | 0.00 | 0.00 | 62 | 1006.3 |
| 20260504041338 | 61 | 214 | 4.0 | 9.0 | 0.00 | 0.00 | 0.00 | 64 | 1006.3 |
| 20260504040839 | 61 | 196 | 3.0 | 6.0 | 0.00 | 0.00 | 0.00 | 66 | 1006.4 |
| 20260504035338 | 61 | 173 | 2.0 | 4.0 | 0.00 | 0.00 | 0.00 | 66 | 1006.5 |
| 20260504034337 | 61 | 178 | 1.0 | 7.0 | 0.00 | 0.00 | 0.00 | 65 | 1006.6 |
| 20260504033837 | 62 | 178 | 3.0 | 7.0 | 0.00 | 0.00 | 0.00 | 64 | 1006.6 |
| 20260504033337 | 62 | 182 | 2.0 | 4.0 | 0.00 | 0.00 | 0.00 | 64 | 1006.6 |
| 20260504032838 | 62 | 166 | 1.0 | 4.0 | 0.00 | 0.00 | 0.00 | 64 | 1006.6 |
| 20260504032337 | 62 | 179 | 3.0 | 4.0 | 0.00 | 0.00 | 0.00 | 64 | 1006.5 |
| 20260504031837 | 62 | 161 | 2.0 | 5.0 | 0.00 | 0.00 | 0.00 | 64 | 1006.5 |
| 20260504031337 | 63 | 175 | 2.0 | 7.0 | 0.00 | 0.00 | 0.00 | 63 | 1006.7 |
| 20260504030837 | 63 | 189 | 3.0 | 7.0 | 0.00 | 0.00 | 0.00 | 64 | 1006.6 |
| 20260504030336 | 63 | 175 | 2.0 | 5.0 | 0.00 | 0.00 | 0.00 | 62 | 1006.6 |
| 20260504025836 | 64 | 182 | 2.0 | 4.0 | 0.00 | 0.00 | 0.00 | 62 | 1006.6 |
| 20260504024836 | 65 | 158 | 2.0 | 4.0 | 0.00 | 0.00 | 0.00 | 61 | 1006.5 |
| 20260504024336 | 65 | 172 | 2.0 | 4.0 | 0.00 | 0.00 | 0.00 | 60 | 1006.6 |
| 20260504023837 | 65 | 216 | 2.0 | 3.0 | 0.00 | 0.00 | 0.00 | 60 | 1006.5 |
| 20260504023336 | 66 | 176 | 1.0 | 3.0 | 0.00 | 0.00 | 0.00 | 59 | 1006.5 |
| 20260504022836 | 67 | 182 | 1.0 | 2.0 | 0.00 | 0.00 | 0.00 | 59 | 1006.5 |
| 20260504021838 | 67 | 210 | 2.0 | 4.0 | 0.00 | 0.00 | 0.00 | 57 | 1006.5 |
| 20260504021337 | 68 | 195 | 0.0 | 2.0 | 0.00 | 0.00 | 0.00 | 55 | 1006.6 |
| 20260504020336 | 69 | 195 | 1.0 | 5.0 | 0.00 | 0.00 | 0.00 | 55 | 1006.6 |
| 20260504015836 | 69 | 203 | 2.0 | 5.0 | 0.00 | 0.00 | 0.00 | 55 | 1006.6 |
| 20260504015335 | 69 | 199 | 2.0 | 5.0 | 0.00 | 0.00 | 0.00 | 54 | 1006.7 |
| 20260504014835 | 70 | 202 | 2.0 | 6.0 | 0.00 | 0.00 | 0.00 | 54 | 1006.5 |
| 20260504014334 | 70 | 212 | 3.0 | 6.0 | 0.00 | 0.00 | 0.00 | 50 | 1006.5 |
| 20260504013335 | 71 | 204 | 2.0 | 9.0 | 0.00 | 0.00 | 0.00 | 50 | 1006.5 |
| 20260504012834 | 71 | 214 | 3.0 | 9.0 | 0.00 | 0.00 | 0.00 | 48 | 1006.5 |
| 20260504012334 | 72 | 182 | 3.0 | 5.0 | 0.00 | 0.00 | 0.00 | 49 | 1006.4 |
| 20260504011835 | 73 | 190 | 2.0 | 6.0 | 0.00 | 0.00 | 0.00 | 48 | 1006.4 |
| 20260504011334 | 73 | 214 | 2.0 | 7.0 | 0.00 | 0.00 | 0.00 | 47 | 1006.4 |
| 20260504010834 | 74 | 220 | 2.0 | 7.0 | 0.00 | 0.00 | 0.00 | 46 | 1006.4 |
| 20260504005333 | 75 | 173 | 2.0 | 9.0 | 0.00 | 0.00 | 0.00 | 43 | 1006.4 |
| 20260504004833 | 76 | 188 | 3.0 | 9.0 | 0.00 | 0.00 | 0.00 | 41 | 1006.4 |
| 20260504004334 | 76 | 179 | 4.0 | 9.0 | 0.00 | 0.00 | 0.00 | 40 | 1006.4 |
| 20260504003833 | 76 | 214 | 3.0 | 10.0 | 0.00 | 0.00 | 0.00 | 41 | 1006.7 |
| 20260504003334 | 77 | 175 | 4.0 | 12.0 | 0.00 | 0.00 | 0.00 | 40 | 1006.6 |
| 20260504002833 | 77 | 188 | 4.0 | 12.0 | 0.00 | 0.00 | 0.00 | 39 | 1006.6 |
| 20260504002333 | 78 | 195 | 4.0 | 9.0 | 0.00 | 0.00 | 0.00 | 40 | 1006.6 |
| 20260504001833 | 78 | 190 | 4.0 | 9.0 | 0.00 | 0.00 | 0.00 | 42 | 1006.6 |
| 20260504001332 | 78 | 179 | 4.0 | 9.0 | 0.00 | 0.00 | 0.00 | 47 | 1006.7 |
| 20260504000833 | 79 | 169 | 3.0 | 4.0 | 0.00 | 0.00 | 0.00 | 45 | 1006.7 |
| 20260504000332 | 79 | 165 | 2.0 | 4.0 | 0.00 | 0.00 | 0.00 | 43 | 1006.8 |
| 20260503235332 | 80 | 185 | 0.0 | 5.0 | 0.00 | 0.00 | 0.00 | 44 | 1006.9 |
| 20260503234331 | 80 | 219 | 2.0 | 6.0 | 0.00 | 0.00 | 0.00 | 40 | 1007.2 |
| 20260503233831 | 81 | 223 | 3.0 | 5.0 | 0.00 | 0.00 | 0.00 | 40 | 1007.3 |
| 20260503233331 | 81 | 180 | 2.0 | 5.0 | 0.00 | 0.00 | 0.00 | 40 | 1007.3 |
| 20260503232831 | 81 | 202 | 3.0 | 5.0 | 0.00 | 0.00 | 0.00 | 35 | 1007.4 |
| 20260503231831 | 81 | 212 | 2.0 | 9.0 | 0.00 | 0.00 | 0.00 | 34 | 1007.5 |
| 20260503231332 | 81 | 210 | 4.0 | 9.0 | 0.00 | 0.00 | 0.00 | 33 | 1007.5 |
| 20260503230831 | 81 | 204 | 3.0 | 9.0 | 0.00 | 0.00 | 0.00 | 35 | 1007.6 |
| 20260503230331 | 81 | 259 | 4.0 | 10.0 | 0.00 | 0.00 | 0.00 | 33 | 1007.6 |
| 20260503225831 | 81 | 200 | 4.0 | 11.0 | 0.00 | 0.00 | 0.00 | 36 | 1007.7 |
| 20260503225331 | 81 | 240 | 5.0 | 11.0 | 0.00 | 0.00 | 0.00 | 33 | 1007.7 |
| 20260503224331 | 81 | 213 | 5.0 | 10.0 | 0.00 | 0.00 | 0.00 | 33 | 1007.7 |
| 20260503223831 | 81 | 212 | 3.0 | 11.0 | 0.00 | 0.00 | 0.00 | 34 | 1007.8 |
| 20260503223331 | 81 | 204 | 4.0 | 13.0 | 0.00 | 0.00 | 0.00 | 32 | 1007.7 |
| 20260503222830 | 82 | 233 | 7.0 | 13.0 | 0.00 | 0.00 | 0.00 | 32 | 1007.8 |
| 20260503222330 | 82 | 214 | 6.0 | 13.0 | 0.00 | 0.00 | 0.00 | 32 | 1007.7 |
| 20260503221830 | 82 | 227 | 4.0 | 13.0 | 0.00 | 0.00 | 0.00 | 33 | 1007.9 |
| 20260503221330 | 83 | 254 | 5.0 | 11.0 | 0.00 | 0.00 | 0.00 | 33 | 1008.0 |
| 20260503220829 | 83 | 227 | 5.0 | 12.0 | 0.00 | 0.00 | 0.00 | 31 | 1008.0 |
| 20260503220330 | 83 | 262 | 6.0 | 15.0 | 0.00 | 0.00 | 0.00 | 31 | 1008.1 |
| 20260503215829 | 84 | 238 | 6.0 | 17.0 | 0.00 | 0.00 | 0.00 | 32 | 1008.3 |
| 20260503215329 | 84 | 237 | 9.0 | 17.0 | 0.00 | 0.00 | 0.00 | 29 | 1008.3 |
| 20260503214829 | 85 | 223 | 7.0 | 17.0 | 0.00 | 0.00 | 0.00 | 32 | 1008.3 |
| 20260503213829 | 85 | 240 | 8.0 | 19.0 | 0.00 | 0.00 | 0.00 | 31 | 1008.4 |
| 20260503213329 | 85 | 248 | 7.0 | 16.0 | 0.00 | 0.00 | 0.00 | 30 | 1008.5 |
| 20260503211830 | 85 | 254 | 8.0 | 17.0 | 0.00 | 0.00 | 0.00 | 27 | 1008.5 |
| 20260503211328 | 85 | 223 | 7.0 | 17.0 | 0.00 | 0.00 | 0.00 | 32 | 1008.7 |
| 20260503210329 | 85 | 234 | 10.0 | 18.0 | 0.00 | 0.00 | 0.00 | 33 | 1008.8 |
| 20260503205828 | 85 | 248 | 7.0 | 14.0 | 0.00 | 0.00 | 0.00 | 35 | 1008.8 |
| 20260503205329 | 85 | 255 | 6.0 | 14.0 | 0.00 | 0.00 | 0.00 | 36 | 1008.9 |
| 20260503204828 | 85 | 244 | 8.0 | 14.0 | 0.00 | 0.00 | 0.00 | 33 | 1008.9 |